Wind_Speed
41 40 38 37 35 34 33 32 30 29 28 28 29 30 30 30 29 27 25 24 22 21 21 21 20 18 18 16 15 14 13 13 13 13 14 14 14 14 13 13 12 11 10 10 10 9 10 12 14 15 16 15 14 14 13 12 11 10 9 9 9 11 12 12 14 15 12 10 10 9 10 10 9 9 9 10 10 10 12 14 13 13 12 13 15
43 42 40 39 37 35 33 32 31 30 29 29 30 30 31 31 30 29 28 26 24 23 22 21 20 19 18 18 16 15 14 14 14 15 15 15 14 14 13 13 13 12 12 12 11 10 10 10 12 14 17 17 16 16 16 15 14 12 10 10 11 12 12 13 15 17 16 13 11 9 9 10 10 9 10 11 11 11 14 15 14 12 12 13 15
43 43 42 41 39 37 35 34 33 32 31 30 30 30 31 32 32 31 30 28 26 25 23 22 21 21 19 18 17 16 16 15 15 16 16 16 15 15 14 13 13 13 14 13 12 12 12 12 10 11 15 18 18 18 17 17 16 13 11 11 12 12 12 13 15 17 18 17 14 11 10 11 10 9 10 11 11 13 15 16 15 13 12 13 15
44 44 43 42 41 39 38 36 35 34 33 32 31 30 30 31 33 33 32 30 28 27 25 24 23 22 21 20 19 18 17 17 17 17 17 17 17 16 15 15 14 14 15 14 14 14 14 14 12 11 12 15 17 17 17 17 16 14 12 12 12 12 13 14 15 17 19 19 17 14 13 13 11 10 11 11 11 13 15 16 16 14 13 13 14
44 45 44 43 43 42 40 38 37 36 35 33 32 30 30 31 32 34 34 33 31 29 28 27 26 25 24 22 21 20 19 19 18 18 18 18 18 18 17 17 16 16 16 15 16 16 16 15 14 13 13 13 13 14 14 16 16 15 14 13 14 14 14 15 15 17 18 20 19 16 14 14 13 11 11 11 12 13 15 16 16 15 14 12 13
45 45 45 44 44 43 42 40 39 37 36 34 33 31 31 31 32 33 35 35 34 32 31 30 29 28 26 25 24 23 22 21 20 19 19 19 19 20 19 19 18 17 17 17 17 16 17 17 15 15 15 15 13 13 13 14 15 15 15 15 15 15 15 15 16 17 18 19 20 18 16 15 13 12 11 12 14 15 16 16 15 15 15 13 12
45 45 45 45 44 44 43 42 40 38 36 34 33 32 31 31 31 33 34 35 36 35 34 33 32 30 29 28 27 25 25 24 23 22 21 21 20 21 21 21 20 20 19 18 18 18 17 17 17 17 17 17 16 15 15 15 15 16 15 15 15 15 15 15 16 17 19 19 19 19 17 16 14 13 12 13 14 15 16 18 17 16 16 14 13
45 45 45 45 45 44 43 42 40 38 36 35 33 32 32 31 31 31 33 35 36 37 36 35 34 33 32 31 30 29 28 27 26 25 24 23 22 22 22 22 22 22 21 20 20 19 19 19 18 18 18 19 18 18 17 17 17 17 17 16 16 16 16 16 17 18 19 19 19 18 17 16 14 13 13 13 13 14 16 18 19 18 18 16 14
45 45 46 46 45 43 43 42 41 40 38 37 35 34 32 31 31 30 31 33 35 37 37 37 36 35 34 33 32 31 31 30 28 27 26 25 24 24 23 23 23 23 23 22 22 21 21 20 20 19 19 19 20 20 19 19 19 19 18 17 17 17 17 17 18 19 19 20 20 18 17 16 14 13 13 12 12 14 16 18 20 20 20 18 15
45 45 46 45 44 43 43 43 42 41 40 38 37 35 34 32 31 31 31 32 33 35 36 38 38 38 37 36 35 35 34 33 31 29 28 27 26 26 25 24 23 24 24 25 24 23 22 22 21 21 20 20 20 20 20 20 20 20 19 18 18 19 19 19 19 19 20 20 19 17 17 16 13 13 13 12 12 14 16 19 21 21 22 21 16
44 45 45 44 43 43 43 42 42 41 40 39 38 36 35 34 33 32 32 32 32 32 34 36 38 38 38 37 37 37 36 35 33 31 30 28 28 27 27 26 25 25 25 26 26 25 24 24 23 22 22 22 21 21 21 21 21 20 20 20 20 20 20 20 20 19 19 20 18 17 17 17 15 14 14 13 13 14 16 19 22 23 24 23 20
43 43 44 43 42 42 42 42 42 41 40 39 38 36 35 35 35 34 34 33 32 32 32 34 35 37 37 38 38 37 37 35 34 32 31 30 29 28 28 27 27 26 26 26 27 27 26 26 25 25 24 23 22 22 22 22 22 21 21 21 21 21 21 20 20 20 21 20 20 19 19 18 17 15 15 15 16 18 19 20 22 24 25 24 23
41 42 41 41 41 41 41 41 41 41 40 39 37 37 36 36 36 35 35 34 33 33 33 32 33 34 36 37 38 38 37 36 34 33 32 31 30 30 29 29 28 28 27 27 27 28 28 27 27 26 25 24 24 24 23 23 22 21 21 21 21 22 21 22 22 22 22 22 22 23 21 20 19 17 16 19 21 21 22 22 22 23 24 24 23
39 40 39 39 39 39 39 40 39 38 38 37 37 37 37 37 36 35 34 34 35 35 34 34 33 33 34 35 37 38 38 37 36 35 34 32 31 31 30 30 29 29 28 28 28 28 29 29 29 28 26 26 25 25 24 23 23 23 23 23 23 23 23 24 24 23 23 22 24 25 23 22 22 20 19 20 22 21 22 23 22 23 24 24 23
37 38 37 36 37 37 38 38 37 36 35 35 36 36 36 36 35 34 34 34 34 34 34 34 34 33 33 33 35 37 38 38 37 36 35 33 32 31 30 30 30 29 29 29 29 29 29 29 29 29 28 27 26 26 25 25 25 25 25 25 25 25 25 25 24 23 22 22 23 24 25 24 24 24 23 22 22 22 22 23 23 24 25 25 24
33 35 36 36 36 37 37 36 36 35 35 35 36 35 35 34 32 32 32 33 33 33 33 33 33 33 33 33 34 36 38 38 38 37 36 34 32 31 31 30 30 30 30 30 30 29 29 29 29 29 29 28 28 27 27 27 27 28 28 27 27 27 26 25 24 23 23 23 23 24 25 25 25 25 25 24 24 24 24 25 25 24 25 25 25
29 32 34 36 37 37 38 38 37 35 35 37 37 35 34 33 31 31 32 32 32 32 32 31 31 32 32 33 34 35 37 38 37 36 35 34 32 32 31 31 31 31 31 30 30 30 29 29 29 29 29 29 28 28 28 28 29 29 28 28 28 28 28 27 25 25 24 23 23 24 25 26 26 27 27 27 26 26 26 27 25 24 23 24 25
24 29 31 32 34 35 37 38 38 37 37 37 37 36 35 34 33 32 32 32 32 31 31 31 31 31 32 32 33 33 34 35 36 36 35 33 33 32 32 32 32 31 31 31 31 31 31 30 30 30 30 30 29 29 28 29 29 29 29 29 29 30 30 28 27 26 24 23 23 23 24 24 24 25 25 25 25 24 25 25 24 22 23 23 23
13 22 27 29 31 32 33 33 34 36 37 37 36 36 35 34 33 33 34 34 33 32 32 33 33 32 31 31 31 31 31 32 34 35 35 34 33 33 32 32 32 32 32 31 31 31 31 31 31 31 31 30 29 29 29 29 30 29 29 29 29 31 30 28 27 26 25 24 23 23 22 21 21 21 21 21 21 22 23 23 22 22 23 23 22
3 13 22 26 29 30 30 30 30 31 33 34 33 32 31 32 32 34 35 35 34 34 34 35 34 33 32 32 31 30 30 30 31 33 34 34 34 34 33 34 33 33 32 32 32 32 32 32 32 31 31 31 30 29 29 30 30 30 29 29 30 31 29 27 27 26 25 25 24 23 22 20 20 20 20 20 20 21 21 22 22 22 22 22 21
1 9 16 22 27 29 29 29 29 29 30 31 30 29 29 30 32 34 35 35 35 35 35 35 35 35 34 33 33 31 30 29 29 30 32 33 34 34 35 35 34 33 33 33 32 32 32 32 32 32 31 30 29 29 29 29 29 29 29 29 29 29 27 27 26 25 24 25 25 24 23 22 22 22 22 21 21 20 21 21 22 22 21 21 22
4 4 9 16 22 25 26 26 27 28 29 30 31 31 31 31 33 34 35 35 36 36 35 35 36 36 35 35 35 34 31 30 29 29 29 31 33 34 36 36 35 33 33 33 33 33 32 32 32 31 31 30 29 28 27 27 26 26 26 26 25 24 23 23 23 22 23 24 24 25 25 25 25 24 24 23 22 21 21 21 22 22 22 22 21
9 6 5 10 17 21 22 23 24 24 25 27 29 31 31 32 32 33 34 35 36 37 36 35 35 35 35 36 37 36 34 32 30 29 28 28 30 32 35 35 35 34 35 35 34 33 32 31 31 30 29 29 28 28 26 25 24 24 23 21 20 20 19 20 20 21 23 24 24 26 27 27 27 27 26 25 24 23 23 23 23 22 22 22 21
11 8 5 5 10 16 20 22 23 23 23 24 26 27 28 29 31 31 33 34 35 37 38 38 37 36 34 35 36 37 36 34 32 30 29 28 28 29 31 33 34 34 35 35 34 33 32 31 29 28 27 27 27 27 25 24 24 24 22 20 19 19 20 21 21 21 23 25 26 27 28 29 29 29 28 26 25 25 25 25 24 23 22 22 21
15 11 8 7 6 10 16 21 24 26 25 25 26 26 25 27 28 30 31 33 35 37 38 39 40 38 35 33 33 34 35 35 34 32 31 29 28 28 28 30 31 33 34 35 34 33 32 30 28 26 26 25 26 26 26 26 26 24 22 21 21 22 23 23 22 23 25 27 28 28 29 30 30 29 27 26 26 26 27 26 25 23 22 21 20
15 14 10 9 10 10 11 16 20 24 26 27 28 28 28 28 28 29 31 33 35 36 38 39 39 40 38 36 33 32 33 34 35 34 33 32 31 30 29 29 29 31 33 34 33 32 31 30 28 27 26 26 26 27 27 27 26 25 25 24 25 25 25 25 25 25 27 28 28 29 30 30 29 28 28 27 27 27 27 26 25 23 22 21 21
14 15 12 10 12 15 12 11 15 19 23 26 28 30 31 31 31 31 32 34 35 36 38 39 39 39 38 37 35 33 32 32 34 36 36 35 33 31 30 29 29 31 33 34 33 32 31 30 29 28 28 29 29 30 30 30 29 29 28 28 27 27 27 27 27 28 28 29 29 30 30 30 30 30 29 28 28 27 25 24 23 22 22 22 23
14 15 14 11 12 16 16 12 13 17 20 22 26 28 31 33 34 34 35 36 36 36 37 38 38 37 35 35 35 34 34 33 33 34 34 34 32 31 30 30 30 31 32 32 32 32 32 31 31 31 31 32 32 33 33 33 32 31 30 30 29 29 29 30 30 30 31 31 31 31 31 31 31 30 29 28 28 26 24 23 22 22 22 23 24
16 16 15 12 12 16 19 15 13 17 19 21 23 26 29 31 34 36 37 37 36 36 36 36 35 34 33 34 34 35 35 34 31 29 28 28 29 29 29 29 30 29 28 28 30 31 33 34 34 34 34 34 34 35 36 35 35 34 33 32 32 32 32 33 33 33 32 32 32 32 32 31 31 30 29 29 28 26 24 23 23 23 24 26 26
18 17 16 13 12 16 20 18 14 14 17 21 23 24 26 28 31 34 36 36 35 35 35 35 34 33 34 35 35 35 35 32 29 28 29 29 30 30 29 28 28 28 27 28 29 31 34 36 37 36 36 35 35 36 37 36 35 35 35 34 34 34 35 35 34 33 33 32 33 33 32 32 32 31 29 29 29 27 25 24 24 24 25 26 26
18 17 16 14 13 15 18 19 17 15 15 18 21 22 23 25 27 29 31 31 31 31 32 32 32 32 34 35 36 36 36 34 33 32 32 32 32 31 30 29 28 28 28 28 29 31 34 37 38 37 37 37 37 37 38 37 36 35 35 35 35 36 35 35 35 34 34 34 34 34 34 34 33 31 29 29 28 28 27 26 26 26 27 27 27
18 17 16 15 14 14 17 18 18 17 15 15 17 20 21 22 24 25 26 26 26 27 28 29 29 30 31 33 34 35 35 35 35 34 34 34 34 33 32 31 29 29 29 29 31 33 34 36 37 36 36 37 36 36 38 38 37 35 35 36 36 36 36 35 35 34 34 34 34 34 35 35 34 32 30 28 28 29 30 29 29 29 29 29 30
18 18 17 16 16 16 17 18 19 18 16 14 15 18 20 21 22 23 23 24 25 26 27 29 29 29 29 30 32 33 34 34 34 34 34 35 35 34 33 32 31 31 31 32 33 35 36 36 36 35 35 35 35 35 36 37 36 35 35 35 35 35 35 35 34 34 34 34 35 35 36 36 35 33 31 31 31 32 32 32 33 33 32 33 35
18 19 18 17 17 17 18 19 20 19 18 17 16 17 20 22 23 23 23 24 25 26 28 29 30 30 29 29 30 31 32 32 32 32 32 33 34 36 36 34 33 33 34 35 35 36 36 37 36 35 34 34 34 34 36 36 35 34 34 35 35 35 35 35 35 34 35 35 35 36 36 35 34 33 32 33 34 33 34 36 36 35 36 39 38
18 18 18 18 18 17 17 18 19 20 20 19 19 19 20 22 24 25 25 25 25 26 27 28 29 29 29 28 28 29 30 30 31 32 33 34 37 38 38 37 37 37 37 37 37 38 38 37 36 35 34 34 34 34 35 36 34 33 33 34 34 35 36 36 35 35 35 35 35 35 35 34 34 33 33 34 35 35 36 36 35 37 40 39 31
18 18 18 18 18 18 18 17 18 19 20 21 22 23 22 23 24 26 27 28 28 28 28 28 27 27 27 27 27 28 28 29 30 33 36 38 40 41 41 41 41 40 40 39 39 39 39 38 37 35 35 35 35 35 36 36 34 32 32 34 35 36 36 36 36 35 35 35 34 34 34 34 34 33 33 35 36 35 34 34 36 39 37 30 23
17 18 18 18 18 18 18 18 17 18 19 21 23 24 24 25 25 27 28 30 30 30 30 29 28 27 28 28 28 28 29 29 30 33 37 40 42 43 44 44 44 43 43 41 40 40 41 39 38 37 36 36 36 36 37 37 35 33 33 34 36 37 37 36 36 36 36 35 35 34 34 33 33 33 33 34 36 35 33 32 34 34 29 23 22
18 18 19 20 20 19 19 18 17 18 19 20 22 23 24 25 26 27 28 30 32 32 32 31 30 30 30 30 29 30 31 32 34 35 37 39 41 43 45 46 46 46 46 44 43 42 41 40 38 36 36 37 37 37 37 37 36 35 34 35 36 37 37 36 37 38 37 36 36 35 34 33 34 33 32 33 34 33 31 30 29 27 25 24 24
19 19 19 20 20 20 20 19 19 18 19 20 21 23 24 25 26 26 27 29 31 32 33 33 33 33 33 32 31 32 33 35 36 37 38 40 41 42 43 45 47 49 49 47 45 43 41 40 39 37 36 36 37 37 37 38 37 36 35 35 36 37 37 37 38 38 38 37 36 35 34 34 35 34 33 32 31 30 29 29 28 27 27 26 24
20 19 20 21 21 21 20 20 20 19 19 20 21 22 24 25 26 26 26 27 29 31 32 33 35 35 34 33 32 34 35 37 37 37 38 40 41 41 42 44 47 49 50 50 47 44 42 42 41 39 36 36 37 38 38 38 38 36 34 34 36 37 37 37 37 37 37 37 36 36 36 36 36 36 33 30 29 28 28 28 28 28 26 25 22
21 20 21 21 21 21 21 20 20 20 20 20 21 22 24 26 27 28 27 28 30 31 33 34 36 37 36 34 33 34 36 39 40 40 40 41 42 42 42 43 44 46 50 52 48 44 42 43 41 39 37 37 37 38 38 38 38 36 35 35 37 37 37 37 37 36 36 36 36 36 36 37 36 35 33 31 30 30 29 29 28 25 24 24 24
21 21 21 21 21 21 21 21 20 19 20 20 21 21 23 25 27 29 29 29 30 32 34 36 38 39 38 36 34 33 35 38 40 41 42 43 43 43 43 42 41 43 48 50 47 42 42 44 42 39 38 38 38 37 37 38 38 37 35 35 37 38 38 38 37 36 36 36 35 35 36 35 32 30 30 30 31 32 32 32 28 24 24 26 27
20 21 21 21 21 21 21 21 20 19 20 20 21 21 22 23 26 28 29 30 30 31 34 36 38 39 40 38 35 33 34 35 37 38 40 42 43 43 43 43 42 42 45 46 44 41 42 44 42 40 39 39 38 37 36 37 37 36 35 35 37 38 38 38 37 36 35 35 36 36 35 31 28 27 27 27 27 29 32 33 30 27 27 30 30
19 19 20 20 21 21 21 20 19 20 20 21 21 21 21 22 24 26 28 29 30 31 32 34 35 37 39 38 36 35 35 35 35 35 36 37 38 39 40 41 41 41 42 43 43 42 41 40 39 39 39 39 38 37 37 37 37 36 35 37 39 39 38 38 38 37 35 34 35 35 33 30 27 26 27 26 26 27 29 30 30 30 29 29 29
17 18 19 19 20 20 19 18 18 18 20 21 22 22 21 21 22 24 25 27 28 28 29 30 30 32 33 34 34 34 34 33 33 33 33 33 34 35 36 38 39 40 41 42 43 43 41 39 37 38 39 39 39 38 38 37 36 36 37 38 40 40 38 38 37 34 32 32 33 33 32 31 28 27 27 27 26 26 26 26 28 29 28 27 28
17 18 18 18 18 18 17 16 16 17 18 20 22 22 21 20 20 22 23 24 25 25 25 26 27 29 29 30 30 30 30 30 30 31 31 31 33 35 36 39 40 40 40 41 42 41 41 39 37 37 39 40 39 38 39 38 37 35 37 39 40 39 39 38 35 30 29 31 33 33 32 31 30 29 28 27 27 27 26 24 24 25 26 27 26
16 17 18 18 18 16 15 14 14 15 16 19 20 20 19 18 18 19 20 22 23 24 23 24 25 27 28 28 28 28 28 28 28 29 30 32 34 36 38 39 40 40 39 40 40 40 39 38 36 36 39 40 38 38 40 38 34 34 38 41 42 41 40 37 32 29 29 30 30 30 31 31 31 30 29 28 28 28 26 22 22 24 26 26 26
15 16 16 16 16 15 14 13 13 13 15 16 17 18 17 16 15 15 17 19 21 22 22 21 21 22 23 24 24 25 25 26 26 27 29 31 34 36 38 38 38 39 39 39 39 39 37 35 34 36 39 38 36 37 38 35 32 36 42 45 43 41 40 37 33 31 31 29 28 28 27 27 28 28 28 28 28 26 23 22 24 25 25 25 25
13 13 14 14 14 13 12 12 12 12 13 14 14 14 14 13 13 12 13 14 16 18 19 19 18 18 18 19 20 21 21 21 22 24 27 29 32 36 37 37 37 38 39 39 39 38 36 33 33 36 37 37 37 38 37 34 35 39 43 44 43 42 39 35 31 30 28 26 25 24 23 23 24 26 27 26 24 22 22 22 24 24 24 24 24
11 11 11 11 10 10 10 10 9 10 12 12 12 12 12 11 10 10 10 10 11 12 13 14 15 15 14 15 15 16 16 17 19 21 23 26 28 30 32 34 36 38 38 37 36 35 34 32 33 34 35 35 36 36 35 33 34 37 38 38 38 35 28 21 20 20 20 21 21 21 20 21 22 23 23 22 20 19 20 21 21 22 23 22 21
8 8 8 7 7 8 8 8 7 8 10 11 12 12 12 11 11 10 9 9 9 8 8 8 9 10 10 11 11 12 13 14 16 18 19 20 19 19 22 26 28 30 30 31 30 30 29 29 29 30 30 28 27 29 30 30 30 31 29 26 23 21 18 16 14 12 14 16 18 19 19 19 18 19 19 19 18 19 19 20 20 20 19 18 18
Wind_Direction
233 233 234 234 234 233 233 233 232 232 233 234 235 235 235 234 234 236 236 234 230 228 226 225 226 229 232 235 236 238 242 245 248 251 251 248 245 242 242 245 251 256 256 256 257 253 247 242 239 238 234 233 236 243 249 254 257 261 273 285 298 311 315 314 313 316 324 328 323 320 319 321 329 331 327 331 336 340 341 339 338 333 324 319 318
234 234 235 235 235 235 235 235 234 233 233 234 236 236 236 236 236 236 236 235 232 229 228 228 230 233 236 238 241 243 246 248 251 254 256 256 252 247 244 244 248 252 254 255 257 258 258 255 250 245 240 238 239 244 249 255 259 262 271 283 296 305 308 308 308 310 315 322 323 322 319 320 328 334 330 329 334 340 340 338 340 335 324 320 319
235 236 236 237 237 237 237 236 235 235 234 235 236 237 238 237 236 236 236 235 234 231 230 232 235 237 240 244 248 250 252 253 253 254 255 256 255 253 248 246 246 249 252 254 256 259 262 264 263 256 249 245 243 245 250 255 259 263 271 284 295 300 302 303 304 306 309 313 318 322 321 321 327 332 329 328 334 340 339 336 337 335 327 321 318
236 236 236 237 238 238 238 238 237 236 236 235 236 238 239 240 239 238 237 236 235 234 233 234 236 239 242 246 250 254 256 256 256 256 256 255 255 255 254 252 249 248 251 252 253 256 260 264 266 265 259 253 248 247 250 254 258 265 274 284 290 293 297 299 301 303 304 307 311 317 319 320 324 328 325 323 329 337 337 334 334 332 329 325 321
236 236 237 237 238 239 239 239 239 239 238 238 237 237 239 241 241 240 239 238 236 235 235 236 237 239 241 244 249 253 256 259 260 261 262 260 258 255 255 255 254 252 251 252 252 253 256 259 261 262 262 260 256 254 254 257 260 267 274 279 284 289 293 295 297 298 299 302 306 310 315 317 317 320 321 320 323 329 330 330 331 328 327 328 324
235 236 237 238 239 240 240 240 241 241 242 241 240 239 239 240 242 241 241 240 239 237 236 237 239 240 242 244 248 251 255 258 261 264 267 268 266 262 258 256 256 256 254 252 252 252 254 255 255 256 258 259 259 258 257 259 262 266 272 276 281 287 290 291 293 295 296 298 301 305 310 312 311 312 317 319 322 326 325 322 326 327 326 328 324
235 236 238 238 240 241 241 242 242 243 244 244 243 243 242 242 242 242 242 242 242 241 238 238 239 242 244 246 247 250 253 256 258 261 265 267 269 268 265 260 257 257 257 255 253 252 252 253 252 252 254 256 257 258 258 260 263 266 270 275 280 284 285 286 289 292 294 295 297 301 304 304 304 305 311 318 323 329 326 319 320 324 325 326 322
234 236 237 239 240 241 242 243 244 244 245 246 246 245 244 244 244 244 244 243 243 243 242 241 241 243 245 247 249 250 252 254 255 257 260 263 266 268 268 265 260 257 256 256 255 253 252 252 251 249 249 252 254 256 259 262 266 268 270 273 275 276 278 281 284 288 292 294 295 297 297 296 296 299 307 317 324 330 330 323 321 323 323 324 322
233 235 237 238 241 243 243 244 244 245 245 246 246 246 246 246 246 246 245 244 244 244 244 244 244 244 246 247 249 250 251 252 252 253 256 260 263 265 266 267 264 260 257 254 254 254 252 252 251 248 247 249 251 253 255 258 263 265 267 268 270 273 275 278 281 285 289 291 291 291 290 288 289 294 302 314 325 329 330 326 323 321 320 321 321
233 234 235 238 241 243 244 244 244 245 245 246 247 248 248 249 249 248 247 246 246 245 245 245 246 246 247 247 249 250 251 251 251 252 255 257 260 262 263 264 264 263 259 255 254 253 253 252 252 251 250 250 250 251 252 254 257 260 262 265 268 272 275 277 280 284 287 288 287 284 283 282 282 289 299 309 321 327 328 327 324 322 318 318 320
233 234 235 238 241 242 243 244 244 245 246 247 248 249 250 251 251 252 251 250 249 247 246 246 246 246 247 247 248 249 250 250 250 251 253 255 257 259 261 262 262 262 260 257 255 253 253 254 253 253 254 253 253 253 254 255 257 259 261 264 267 271 274 276 279 282 286 285 281 276 277 278 278 285 296 305 314 318 320 322 323 323 321 318 319
232 234 236 238 240 241 242 243 244 246 247 247 248 250 251 252 252 253 253 253 252 251 249 248 247 247 247 247 248 248 249 250 250 251 251 253 255 257 259 260 261 261 259 257 255 254 254 254 254 255 255 256 256 256 257 257 258 259 260 262 265 267 270 273 277 281 284 283 278 273 273 277 279 284 293 301 305 307 308 311 315 318 318 317 316
234 234 236 238 240 241 242 243 244 246 247 248 249 250 250 251 252 253 254 254 254 254 253 252 251 249 248 248 247 247 248 249 249 250 251 251 253 255 257 258 259 259 258 256 255 255 254 254 254 254 255 256 257 258 258 258 257 258 259 260 261 263 266 270 274 278 280 278 274 272 273 277 280 281 289 299 302 302 301 303 305 307 310 311 311
234 236 237 239 241 242 242 243 245 246 248 249 249 250 251 251 252 253 254 255 255 255 254 254 253 252 251 251 249 248 247 248 249 250 251 251 253 255 257 257 258 257 256 254 254 253 254 254 254 254 254 254 255 256 257 257 257 258 259 259 260 261 264 267 269 271 272 272 271 272 273 275 277 278 285 294 300 302 301 299 298 298 300 303 306
231 236 239 240 241 241 241 242 244 246 247 248 248 250 251 252 252 253 254 254 254 255 255 255 255 254 254 253 253 250 247 246 247 249 250 251 252 253 255 255 255 255 254 253 252 252 253 254 255 254 253 253 253 253 254 255 256 258 259 260 261 261 262 264 265 266 266 265 267 270 271 271 271 274 279 284 290 296 298 296 293 292 293 297 300
223 229 235 239 240 240 241 241 243 245 245 246 247 248 249 250 251 252 253 254 254 255 255 255 255 254 254 254 253 251 248 245 246 247 248 249 250 252 253 253 253 253 252 252 252 252 252 253 255 255 254 253 251 250 251 253 254 256 258 259 261 262 261 261 262 262 263 263 265 267 268 268 267 268 273 277 281 287 292 291 288 288 290 292 295
218 221 226 231 235 237 239 240 241 243 244 245 246 247 248 249 250 251 251 252 253 254 254 255 255 254 253 253 252 251 248 245 244 244 245 246 248 249 250 250 251 252 251 251 252 252 252 253 254 256 255 253 251 250 251 253 254 255 257 259 261 261 261 260 261 261 262 263 265 267 268 268 266 266 268 273 278 282 284 284 284 285 286 287 290
216 217 219 223 228 232 236 238 240 242 244 245 247 248 249 251 251 252 252 253 253 254 255 255 256 255 255 254 253 253 251 247 244 243 242 243 245 247 248 250 251 252 251 251 252 252 252 252 253 255 255 253 252 252 253 256 257 258 258 260 262 261 260 259 260 262 263 264 266 269 270 269 268 267 268 271 275 277 278 279 282 283 283 284 289
216 215 216 219 223 226 230 235 239 242 244 246 248 250 252 254 255 255 255 255 255 256 256 256 257 257 257 257 256 256 254 249 245 243 241 241 243 244 247 250 251 252 252 252 252 252 252 252 252 253 254 253 252 253 255 258 259 259 260 263 264 262 260 261 262 263 265 267 268 269 269 268 267 266 265 266 269 271 273 277 279 280 281 284 290
195 203 211 218 223 226 228 230 234 238 243 245 248 250 252 253 253 254 255 256 257 257 257 256 257 258 258 258 257 257 257 253 248 244 243 243 244 244 246 248 249 250 252 253 254 253 252 251 251 252 253 253 251 252 255 257 259 260 262 263 262 260 262 265 266 266 268 269 269 268 266 264 262 260 259 260 264 268 272 275 277 278 280 284 289
132 184 204 213 219 223 227 230 232 235 239 241 242 243 245 246 248 251 253 255 257 257 257 257 257 258 258 258 258 258 258 258 255 251 248 247 247 247 247 247 247 248 251 253 255 255 253 252 251 251 252 253 252 252 254 258 261 264 265 264 263 263 265 268 268 269 270 269 268 266 264 262 260 259 259 260 263 268 274 277 278 278 279 282 287
327 228 216 212 212 213 217 222 226 230 233 236 237 239 240 242 245 248 251 253 255 257 257 257 258 259 259 259 259 258 258 259 259 259 256 252 250 250 249 249 248 249 251 253 254 254 254 253 252 251 252 253 253 253 255 260 264 266 267 267 267 267 268 268 268 268 267 265 265 265 263 261 261 261 261 263 265 270 276 281 281 280 279 281 282
324 304 253 222 215 214 214 215 219 224 229 233 237 239 241 241 242 244 247 250 253 254 255 255 256 258 260 260 259 259 259 258 259 260 260 257 254 251 250 250 250 251 252 252 252 253 253 253 253 253 253 254 254 254 256 260 264 266 268 269 269 268 267 266 264 263 263 263 263 263 262 262 263 264 263 264 267 271 277 281 282 280 279 279 276
328 327 315 259 231 224 222 222 222 225 228 233 238 241 242 241 240 240 242 246 249 251 252 252 252 254 258 261 261 260 259 259 258 258 259 259 257 254 251 250 250 251 252 253 252 252 252 252 252 253 254 255 255 256 258 260 262 264 266 266 266 264 263 262 261 261 262 262 262 262 262 263 265 266 267 269 271 274 276 277 278 277 277 277 273
328 327 334 334 302 250 233 230 229 228 228 232 237 241 244 243 239 237 238 241 245 248 250 250 250 251 254 259 262 262 261 260 259 259 258 258 257 256 255 253 252 252 252 252 252 252 252 252 253 254 255 256 257 258 259 258 259 261 262 262 261 259 259 260 261 261 261 261 263 264 265 266 269 272 275 276 274 272 271 272 273 272 271 271 269
327 325 322 328 334 312 261 240 236 234 230 229 232 236 240 243 243 241 239 239 241 244 246 248 250 250 252 255 258 261 262 262 261 259 259 258 257 257 258 257 255 254 253 253 253 253 253 254 254 255 255 256 258 260 260 259 259 260 259 258 257 256 258 260 261 262 263 264 266 267 268 271 274 276 276 274 270 268 266 267 268 266 265 264 264
335 334 322 311 323 325 305 261 243 239 234 231 230 231 234 237 240 242 242 241 241 242 244 246 248 249 251 254 256 258 260 261 261 260 258 258 258 258 258 258 256 254 253 253 252 252 252 253 254 255 256 257 258 259 260 260 259 258 256 255 254 256 258 261 263 265 265 266 267 268 269 272 273 273 273 272 270 267 263 261 261 260 259 258 260
339 343 332 310 298 308 312 291 252 241 237 233 231 230 231 233 235 238 240 243 244 245 245 246 247 249 252 255 257 257 257 257 258 259 260 261 261 260 259 259 258 257 256 255 254 253 254 254 254 254 255 255 255 257 258 259 259 258 257 255 255 256 259 261 262 263 263 264 265 266 269 271 272 272 273 271 269 265 260 256 255 254 254 255 256
334 340 339 327 302 301 310 306 274 250 241 235 233 231 230 231 233 236 240 243 246 249 250 251 253 255 257 259 260 259 259 258 258 262 264 265 266 266 265 264 264 264 266 265 262 258 256 254 253 253 253 253 254 255 257 258 260 261 260 258 258 258 259 261 262 262 262 262 263 266 268 269 270 271 269 267 265 263 258 253 250 249 249 251 254
333 333 334 335 324 310 309 310 299 272 249 240 238 236 232 231 232 235 239 242 246 250 253 255 259 262 262 263 263 263 265 267 268 269 269 269 269 271 273 274 272 271 272 269 264 259 257 254 253 253 253 254 254 255 256 258 260 261 262 262 262 261 262 264 264 263 261 260 261 263 265 266 267 268 266 264 262 258 253 250 247 246 246 248 251
333 329 325 325 321 309 303 304 303 290 266 249 243 241 238 235 233 234 237 240 243 247 252 255 259 261 262 263 265 266 268 271 270 270 271 270 269 270 273 275 275 274 272 268 264 260 257 255 254 254 254 255 256 256 258 259 259 261 262 263 263 263 264 264 263 260 259 258 259 260 261 263 264 264 263 262 260 256 251 246 244 244 245 246 249
332 328 320 314 310 302 296 293 290 286 280 265 250 245 245 243 239 235 237 240 242 245 248 252 255 256 257 260 262 263 265 267 268 269 270 271 270 269 270 273 274 273 271 267 264 261 258 256 254 254 254 255 257 258 259 260 260 260 262 263 263 263 262 261 259 258 258 258 258 259 260 262 263 262 260 259 258 256 251 246 243 244 245 246 248
326 328 321 312 306 301 296 292 289 288 287 279 263 252 250 251 250 244 240 239 241 242 245 248 251 251 252 253 256 258 260 263 265 266 267 268 269 269 268 269 270 269 267 264 263 262 260 257 255 254 254 255 256 257 259 260 260 260 261 263 262 261 258 257 257 258 258 258 259 261 262 263 263 261 257 256 256 254 251 249 246 244 244 245 245
313 323 325 317 309 305 303 302 300 296 291 284 275 263 253 250 252 251 246 242 239 238 239 242 246 249 250 249 250 252 255 257 259 261 263 264 266 266 265 264 263 263 262 261 262 261 260 258 256 254 253 254 254 254 256 258 258 259 260 260 260 257 255 254 255 256 257 258 261 264 265 265 264 261 257 256 255 253 251 250 249 248 248 245 239
301 311 321 319 312 308 306 305 304 301 295 286 278 271 261 253 250 250 249 248 246 244 243 243 245 248 251 251 251 252 255 257 259 260 261 262 261 260 259 257 257 258 257 258 259 260 259 259 258 255 253 252 252 253 255 256 257 257 257 257 257 255 254 253 254 255 257 261 264 267 268 268 266 263 260 256 253 252 250 247 247 250 250 243 234
298 303 312 316 313 309 306 303 302 301 298 291 283 277 270 263 256 250 248 248 249 250 252 252 251 251 251 251 251 251 253 256 259 261 262 262 260 258 256 255 256 256 255 256 257 258 259 259 258 257 255 253 252 253 254 255 256 256 255 255 255 255 255 255 256 258 261 264 268 270 270 268 265 262 258 253 251 251 250 246 247 250 248 241 235
301 304 310 314 313 310 306 304 302 299 296 293 289 284 278 273 266 257 251 248 248 249 253 256 257 256 254 252 250 249 250 254 257 258 259 259 258 257 257 256 256 256 256 256 255 255 256 257 257 257 257 255 254 253 254 255 255 254 254 254 254 255 256 257 259 262 264 267 268 269 269 267 262 259 255 250 248 247 245 245 248 249 244 239 238
304 306 310 314 315 312 308 305 303 301 297 294 291 288 284 280 275 267 259 253 249 248 250 252 254 256 258 258 257 256 258 259 260 259 258 257 256 255 256 256 256 256 256 256 256 255 256 257 257 257 256 255 254 253 253 254 253 253 253 254 255 256 258 259 261 263 264 265 266 267 267 264 260 256 252 247 245 244 242 243 247 246 241 242 243
304 307 309 311 315 316 312 306 304 303 301 297 293 289 286 283 280 275 268 261 254 250 249 250 251 252 255 260 264 266 266 266 264 262 261 260 259 258 257 257 256 255 255 256 256 257 258 258 258 257 254 253 253 253 253 253 253 252 253 254 255 257 258 259 260 262 262 264 265 265 264 261 257 254 249 244 243 242 239 237 240 241 241 243 242
303 308 309 309 313 318 317 311 306 305 303 299 295 291 287 284 281 278 274 269 263 258 254 252 252 251 252 255 262 268 270 270 269 267 266 265 264 262 260 258 257 256 255 254 255 257 258 259 259 257 253 249 250 252 252 253 253 253 253 253 255 257 257 257 259 260 262 263 263 263 262 259 255 252 247 241 240 242 240 238 240 241 241 240 236
302 308 309 308 310 316 319 315 310 307 305 302 298 293 288 286 283 280 276 273 270 267 262 258 256 255 253 252 255 261 265 268 269 269 269 267 266 264 263 262 260 259 256 253 252 255 258 259 260 258 252 247 246 249 250 252 253 253 251 252 253 255 256 256 256 256 258 260 260 260 259 257 254 250 245 240 240 242 242 242 243 241 238 237 234
301 306 308 308 310 314 318 318 315 312 310 307 303 297 291 287 286 284 280 277 274 272 270 266 263 261 258 255 254 258 263 265 265 265 265 265 265 264 264 262 261 261 259 256 254 256 259 260 260 258 252 246 242 243 246 248 250 250 250 251 252 254 255 253 251 251 253 254 254 254 254 253 250 246 243 241 241 241 240 242 243 239 234 236 235
302 307 309 310 312 314 317 318 319 318 315 312 308 303 296 291 289 287 285 281 278 276 274 272 271 270 268 265 262 262 265 267 267 264 263 262 263 263 263 261 260 260 261 261 259 259 260 260 259 257 254 249 244 242 243 245 248 251 253 252 253 254 254 252 249 247 248 249 247 246 247 246 244 242 243 244 242 238 238 242 245 242 237 235 232
305 308 310 312 314 315 317 320 324 324 322 319 315 309 302 297 294 291 288 284 281 279 278 277 278 279 279 277 272 268 269 272 273 271 267 264 263 263 263 262 261 260 261 262 262 261 260 260 258 256 254 251 246 244 245 246 248 252 254 254 254 254 253 250 246 243 242 243 243 242 242 241 241 242 244 244 243 240 237 238 242 245 242 232 221
305 308 311 314 316 316 319 323 329 330 328 325 321 315 309 304 302 299 295 290 285 282 280 279 278 278 279 279 276 273 273 275 276 275 273 271 270 268 265 262 262 262 261 260 260 260 260 260 257 255 253 251 247 245 246 246 247 250 252 252 253 255 254 251 247 241 237 237 238 238 238 239 240 242 242 242 244 245 240 236 238 241 236 222 212
306 309 314 317 318 319 321 327 334 336 334 328 323 319 316 313 309 308 305 300 294 288 282 276 272 269 269 270 270 272 275 278 278 278 277 274 271 269 266 263 262 262 262 261 261 262 262 260 257 254 254 252 248 245 245 244 244 247 248 249 250 252 250 248 244 237 232 232 234 236 237 238 239 240 241 241 242 244 244 239 231 223 216 210 209
309 313 317 320 320 322 325 331 337 341 338 330 323 320 320 319 316 313 310 305 299 292 284 276 270 266 264 263 263 265 270 272 272 273 274 273 270 269 267 265 264 264 263 264 264 264 262 260 258 257 255 251 244 242 242 241 238 239 243 246 247 245 240 236 233 229 227 229 231 233 234 236 238 240 239 237 238 241 240 231 214 205 205 208 211
315 316 319 320 321 324 329 334 339 342 339 332 326 325 324 324 322 317 312 306 299 292 285 278 272 268 265 262 260 259 260 259 257 257 259 262 264 265 264 264 265 265 264 263 263 262 259 257 257 257 254 248 241 240 240 237 232 234 239 243 242 236 230 226 225 223 222 224 226 227 230 235 238 238 235 233 233 234 227 212 203 204 207 209 208
316 316 317 319 321 327 332 336 341 346 345 339 335 334 332 330 327 322 316 311 304 297 291 285 278 270 263 257 254 252 250 248 246 244 245 247 250 252 253 254 256 257 257 258 259 257 254 253 252 249 243 238 235 233 231 228 228 231 236 237 235 229 226 225 225 222 220 220 222 223 226 228 229 229 227 225 223 220 213 207 206 206 205 203 202
308 310 312 315 321 329 332 335 344 354 355 350 348 349 347 346 346 340 329 322 314 306 301 296 287 275 262 250 242 238 234 231 231 233 233 233 234 237 238 238 239 241 242 245 248 247 247 247 245 237 228 222 222 223 221 221 223 226 228 229 229 227 226 228 229 222 214 209 209 210 211 213 215 217 217 216 213 208 206 206 205 204 202 202 201
297 303 306 315 326 330 327 329 350 10 10 4 2 2 3 5 11 12 2 349 341 333 326 316 300 285 273 259 244 231 221 217 216 216 217 219 220 218 217 218 220 222 225 228 231 232 232 231 228 222 216 211 210 211 211 212 214 216 219 221 222 222 223 226 222 206 193 193 196 195 195 201 209 212 210 206 202 200 200 201 202 202 202 202 201
Height
1537 1540 1542 1545 1547 1550 1552 1555 1557 1560 1562 1564 1566 1568 1570 1572 1574 1576 1578 1580 1581 1583 1584 1585 1587 1589 1590 1591 1592 1594 1595 1596 1596 1597 1598 1599 1600 1601 1601 1602 1602 1603 1604 1604 1605 1606 1607 1608 1609 1610 1611 1611 1612 1613 1613 1614 1614 1614 1615 1615 1615 1615 1615 1615 1614 1613 1613 1614 1614 1613 1613 1612 1612 1611 1610 1609 1608 1607 1605 1604 1603 1601 1599 1598 1596
1534 1537 1540 1542 1544 1547 1550 1552 1554 1557 1559 1561 1563 1565 1567 1569 1572 1574 1575 1577 1579 1581 1582 1584 1585 1587 1588 1589 1591 1592 1593 1594 1595 1596 1596 1598 1598 1599 1600 1601 1601 1602 1603 1603 1604 1605 1606 1607 1608 1609 1609 1610 1611 1611 1612 1613 1613 1613 1614 1614 1614 1615 1614 1614 1613 1612 1612 1612 1613 1612 1612 1612 1611 1610 1609 1608 1607 1606 1604 1603 1602 1601 1599 1597 1595
1532 1534 1537 1539 1542 1545 1547 1549 1551 1554 1556 1558 1560 1562 1565 1567 1569 1571 1573 1575 1577 1578 1580 1582 1583 1585 1586 1587 1589 1590 1591 1592 1593 1594 1595 1596 1597 1598 1599 1599 1600 1601 1601 1602 1603 1604 1605 1605 1606 1607 1608 1609 1609 1610 1611 1611 1612 1612 1612 1613 1613 1613 1613 1613 1613 1612 1611 1611 1611 1611 1611 1610 1610 1609 1608 1607 1606 1605 1603 1602 1601 1600 1598 1597 1595
1529 1532 1534 1536 1539 1542 1544 1546 1548 1550 1552 1555 1557 1559 1562 1564 1566 1568 1570 1572 1574 1576 1578 1579 1581 1582 1583 1585 1586 1587 1589 1590 1591 1592 1593 1594 1595 1596 1597 1598 1599 1599 1600 1601 1602 1603 1603 1604 1605 1606 1607 1607 1608 1608 1609 1610 1610 1611 1611 1612 1612 1612 1612 1612 1612 1611 1610 1609 1610 1610 1610 1609 1609 1608 1607 1606 1606 1604 1603 1601 1600 1599 1598 1596 1594
1526 1529 1531 1534 1536 1539 1541 1543 1545 1547 1549 1552 1554 1557 1559 1561 1563 1565 1567 1569 1571 1573 1575 1576 1578 1579 1580 1582 1583 1585 1586 1588 1589 1590 1591 1592 1593 1594 1595 1596 1597 1598 1599 1599 1600 1601 1602 1602 1603 1604 1605 1605 1606 1607 1608 1608 1609 1609 1610 1610 1610 1611 1611 1610 1610 1610 1609 1608 1608 1608 1608 1608 1607 1607 1606 1605 1604 1603 1602 1600 1599 1598 1597 1595 1594
1523 1526 1529 1531 1533 1535 1538 1540 1542 1544 1546 1549 1551 1554 1556 1558 1560 1561 1564 1566 1568 1570 1572 1573 1575 1576 1578 1579 1581 1582 1584 1585 1586 1587 1589 1590 1591 1592 1593 1594 1595 1596 1597 1598 1598 1599 1600 1600 1602 1602 1603 1604 1604 1605 1606 1607 1607 1608 1608 1609 1609 1609 1609 1609 1609 1608 1608 1607 1606 1606 1607 1606 1606 1605 1605 1604 1603 1601 1600 1599 1598 1597 1596 1595 1593
1521 1523 1526 1528 1530 1532 1534 1536 1539 1541 1543 1546 1548 1550 1552 1554 1556 1558 1560 1562 1564 1566 1568 1570 1571 1573 1575 1576 1578 1579 1581 1582 1583 1585 1586 1587 1588 1589 1590 1591 1592 1593 1594 1596 1596 1597 1598 1599 1599 1600 1601 1601 1602 1603 1604 1605 1605 1606 1606 1607 1607 1607 1607 1607 1607 1606 1606 1605 1605 1605 1604 1604 1604 1603 1603 1602 1601 1600 1598 1597 1596 1596 1595 1594 1593
1518 1520 1522 1524 1526 1529 1531 1534 1536 1538 1541 1543 1545 1547 1549 1551 1552 1554 1556 1558 1560 1562 1564 1566 1568 1570 1571 1573 1575 1576 1577 1579 1580 1582 1583 1584 1585 1586 1588 1589 1590 1591 1592 1593 1594 1595 1596 1596 1597 1598 1599 1599 1600 1601 1602 1602 1603 1603 1604 1604 1604 1605 1605 1605 1604 1604 1604 1603 1603 1603 1602 1602 1602 1602 1601 1600 1600 1599 1598 1596 1595 1594 1593 1593 1592
1514 1516 1518 1520 1523 1526 1528 1531 1533 1535 1537 1539 1541 1543 1545 1547 1549 1551 1553 1554 1556 1558 1560 1563 1564 1566 1568 1569 1571 1573 1574 1575 1577 1578 1580 1581 1583 1584 1585 1586 1587 1588 1589 1590 1591 1592 1593 1594 1595 1595 1596 1597 1597 1598 1599 1599 1600 1600 1601 1601 1602 1602 1602 1602 1602 1602 1602 1601 1601 1601 1600 1600 1600 1600 1599 1599 1598 1597 1597 1596 1594 1593 1592 1591 1591
1510 1513 1515 1517 1520 1523 1525 1527 1530 1532 1534 1536 1538 1540 1542 1544 1545 1547 1548 1550 1552 1554 1556 1558 1560 1562 1564 1565 1567 1568 1570 1571 1573 1575 1577 1578 1580 1581 1582 1583 1584 1585 1586 1587 1588 1589 1590 1591 1592 1593 1594 1594 1595 1595 1596 1597 1597 1598 1598 1599 1599 1599 1599 1599 1599 1599 1599 1599 1598 1598 1598 1597 1597 1597 1597 1597 1597 1596 1596 1595 1593 1592 1591 1590 1590
1507 1509 1511 1514 1517 1519 1521 1524 1526 1528 1530 1532 1534 1536 1538 1540 1542 1543 1545 1546 1548 1550 1552 1554 1555 1557 1559 1561 1563 1564 1565 1567 1569 1572 1573 1575 1576 1577 1578 1580 1581 1581 1582 1583 1584 1585 1586 1588 1589 1590 1590 1591 1592 1593 1593 1594 1594 1595 1595 1596 1596 1596 1596 1596 1596 1597 1597 1596 1596 1596 1595 1595 1595 1595 1595 1595 1595 1595 1594 1594 1593 1591 1590 1589 1589
1504 1506 1508 1511 1514 1516 1518 1520 1522 1525 1527 1529 1531 1533 1535 1537 1538 1540 1541 1543 1545 1546 1548 1549 1551 1553 1555 1557 1558 1559 1561 1563 1565 1568 1569 1571 1573 1574 1575 1576 1577 1578 1579 1580 1581 1582 1583 1584 1585 1586 1587 1588 1589 1590 1590 1591 1592 1592 1593 1593 1593 1593 1593 1594 1594 1594 1594 1594 1593 1593 1593 1592 1592 1593 1593 1593 1593 1593 1592 1592 1591 1590 1589 1588 1588
1502 1504 1506 1509 1511 1513 1515 1517 1519 1521 1523 1525 1528 1530 1531 1533 1534 1536 1538 1540 1541 1542 1544 1545 1547 1549 1550 1552 1553 1555 1556 1558 1561 1563 1565 1567 1569 1570 1571 1572 1573 1574 1575 1576 1578 1579 1580 1581 1581 1582 1584 1585 1586 1586 1587 1588 1588 1589 1589 1590 1590 1590 1591 1591 1591 1591 1591 1591 1590 1590 1590 1590 1590 1590 1591 1591 1590 1590 1590 1589 1589 1589 1588 1587 1587
1500 1501 1503 1506 1508 1510 1512 1514 1516 1518 1520 1522 1524 1526 1527 1529 1530 1532 1534 1536 1537 1538 1540 1541 1543 1544 1546 1547 1548 1550 1552 1554 1556 1558 1560 1563 1565 1566 1567 1568 1569 1570 1571 1572 1574 1575 1576 1577 1578 1579 1581 1582 1582 1583 1584 1584 1585 1585 1586 1586 1587 1587 1588 1588 1588 1588 1588 1588 1587 1587 1587 1588 1587 1587 1588 1588 1587 1587 1587 1587 1587 1586 1585 1585 1585
1499 1500 1501 1503 1505 1507 1508 1510 1512 1514 1516 1519 1520 1522 1524 1525 1527 1529 1530 1531 1533 1534 1536 1537 1538 1540 1541 1543 1544 1545 1547 1549 1551 1553 1555 1558 1560 1561 1563 1564 1564 1565 1566 1568 1569 1571 1572 1574 1575 1576 1577 1578 1579 1580 1580 1581 1582 1582 1582 1583 1583 1584 1584 1585 1585 1585 1585 1584 1584 1584 1584 1585 1585 1585 1585 1585 1584 1584 1584 1583 1583 1583 1582 1582 1582
1497 1499 1500 1501 1503 1504 1506 1507 1509 1511 1513 1515 1516 1518 1520 1521 1523 1525 1526 1528 1529 1530 1531 1533 1534 1535 1537 1538 1539 1540 1542 1544 1547 1548 1550 1553 1555 1557 1558 1559 1560 1561 1562 1563 1565 1566 1568 1570 1571 1572 1573 1574 1575 1576 1577 1578 1578 1578 1578 1579 1579 1580 1580 1581 1581 1581 1581 1581 1581 1581 1581 1581 1582 1582 1582 1582 1582 1581 1581 1580 1580 1580 1579 1578 1578
1494 1495 1497 1499 1501 1502 1504 1505 1507 1509 1510 1512 1513 1514 1516 1518 1520 1522 1523 1524 1525 1526 1527 1529 1530 1531 1532 1534 1534 1535 1537 1539 1542 1543 1546 1548 1550 1552 1553 1554 1555 1556 1558 1559 1561 1562 1564 1566 1567 1568 1569 1570 1571 1572 1573 1574 1574 1574 1575 1575 1575 1575 1576 1577 1578 1578 1578 1578 1578 1578 1578 1578 1578 1579 1579 1579 1578 1578 1577 1576 1576 1577 1576 1575 1574
1493 1493 1494 1495 1498 1500 1502 1503 1505 1506 1508 1509 1510 1512 1513 1515 1516 1518 1519 1520 1521 1522 1523 1525 1526 1527 1528 1529 1530 1530 1532 1534 1537 1539 1541 1543 1545 1547 1548 1550 1551 1552 1554 1555 1557 1558 1560 1561 1563 1563 1564 1566 1567 1568 1569 1570 1570 1570 1571 1571 1571 1571 1572 1573 1574 1574 1575 1575 1575 1575 1574 1575 1575 1575 1575 1575 1575 1575 1574 1573 1573 1573 1573 1572 1572
1491 1491 1491 1493 1494 1496 1499 1500 1502 1504 1505 1506 1508 1509 1511 1512 1513 1514 1515 1516 1517 1519 1520 1521 1521 1522 1523 1524 1526 1526 1527 1529 1532 1534 1536 1538 1540 1542 1544 1546 1547 1548 1549 1551 1553 1554 1555 1557 1558 1559 1560 1561 1563 1564 1565 1565 1566 1566 1567 1568 1567 1567 1568 1570 1570 1571 1571 1571 1571 1571 1571 1571 1571 1571 1571 1572 1571 1571 1571 1570 1570 1570 1570 1569 1570
1489 1489 1491 1491 1492 1494 1495 1497 1499 1501 1502 1504 1505 1506 1507 1509 1509 1510 1511 1512 1514 1515 1516 1516 1517 1518 1519 1520 1521 1522 1523 1524 1526 1529 1531 1534 1536 1538 1540 1541 1542 1544 1545 1547 1548 1549 1551 1552 1553 1554 1556 1557 1559 1560 1561 1561 1561 1562 1563 1563 1563 1564 1565 1566 1567 1567 1568 1567 1568 1568 1567 1568 1568 1567 1568 1568 1568 1568 1568 1567 1567 1567 1567 1566 1567
1487 1487 1488 1489 1490 1490 1492 1494 1496 1497 1499 1501 1502 1503 1503 1504 1505 1506 1507 1508 1509 1510 1511 1512 1513 1513 1515 1516 1516 1518 1519 1520 1522 1524 1527 1529 1532 1534 1535 1536 1537 1540 1541 1542 1543 1544 1546 1548 1549 1550 1552 1553 1555 1556 1557 1557 1558 1558 1559 1559 1560 1561 1562 1563 1563 1563 1564 1563 1563 1563 1563 1564 1564 1564 1564 1564 1564 1565 1565 1564 1564 1564 1563 1563 1563
1488 1486 1485 1486 1486 1487 1488 1490 1492 1494 1496 1497 1498 1498 1499 1500 1501 1502 1503 1504 1505 1506 1507 1508 1508 1509 1510 1511 1512 1513 1515 1517 1519 1521 1523 1525 1527 1529 1530 1531 1533 1536 1537 1537 1538 1539 1541 1543 1544 1547 1548 1550 1551 1552 1553 1554 1554 1554 1555 1555 1556 1558 1558 1559 1559 1559 1559 1559 1559 1558 1559 1559 1559 1560 1560 1561 1561 1561 1561 1561 1561 1561 1560 1560 1560
1489 1485 1483 1483 1484 1484 1485 1487 1488 1490 1492 1493 1494 1494 1495 1495 1496 1497 1499 1500 1501 1502 1502 1503 1504 1504 1505 1506 1507 1509 1511 1513 1515 1517 1518 1520 1522 1523 1525 1526 1529 1531 1531 1532 1533 1535 1537 1538 1540 1542 1544 1546 1547 1548 1549 1550 1550 1551 1551 1552 1553 1554 1554 1555 1555 1555 1554 1554 1554 1554 1554 1555 1555 1555 1556 1557 1557 1558 1558 1557 1557 1557 1557 1557 1557
1488 1484 1481 1480 1481 1482 1483 1484 1486 1487 1489 1490 1490 1490 1491 1491 1492 1493 1494 1495 1496 1497 1497 1498 1499 1499 1500 1501 1502 1504 1506 1508 1510 1512 1514 1516 1517 1518 1519 1521 1524 1526 1526 1527 1529 1530 1532 1534 1536 1538 1540 1542 1543 1544 1545 1546 1547 1547 1548 1549 1550 1550 1550 1550 1551 1551 1550 1550 1549 1550 1550 1551 1551 1551 1552 1553 1554 1554 1554 1553 1553 1553 1553 1553 1553
1485 1481 1478 1478 1478 1478 1479 1481 1482 1484 1486 1487 1487 1487 1488 1488 1488 1489 1490 1491 1491 1492 1492 1493 1494 1494 1495 1496 1497 1500 1502 1504 1505 1507 1508 1510 1512 1513 1514 1517 1519 1520 1521 1522 1524 1526 1528 1530 1533 1535 1536 1537 1538 1539 1541 1542 1543 1544 1545 1546 1546 1546 1546 1546 1547 1547 1546 1545 1546 1546 1546 1547 1547 1548 1548 1549 1549 1548 1549 1549 1549 1549 1549 1549 1549
1482 1479 1476 1475 1475 1476 1477 1478 1479 1480 1482 1483 1483 1483 1484 1484 1484 1485 1486 1486 1487 1487 1487 1489 1489 1490 1490 1491 1493 1495 1498 1499 1500 1501 1503 1505 1506 1508 1510 1512 1514 1515 1516 1517 1519 1521 1524 1526 1528 1530 1532 1533 1534 1534 1536 1537 1539 1540 1541 1542 1542 1542 1543 1543 1543 1543 1542 1542 1543 1543 1543 1543 1544 1544 1544 1543 1543 1543 1544 1544 1544 1545 1545 1545 1545
1480 1477 1474 1472 1472 1474 1474 1475 1476 1477 1478 1479 1479 1480 1480 1480 1481 1481 1481 1481 1482 1482 1483 1484 1485 1485 1486 1487 1488 1491 1492 1493 1494 1496 1498 1500 1501 1504 1506 1507 1508 1510 1510 1512 1514 1517 1519 1522 1524 1526 1527 1528 1529 1529 1530 1532 1533 1534 1536 1537 1538 1538 1539 1539 1539 1539 1539 1539 1539 1539 1539 1539 1539 1539 1539 1538 1538 1538 1539 1539 1540 1540 1541 1541 1541
1476 1474 1471 1469 1470 1472 1473 1473 1473 1474 1474 1475 1475 1475 1476 1476 1476 1476 1476 1477 1477 1477 1478 1479 1480 1481 1481 1482 1484 1485 1486 1487 1488 1491 1494 1496 1497 1499 1500 1501 1503 1504 1506 1507 1510 1513 1516 1518 1519 1520 1521 1522 1523 1523 1524 1525 1527 1529 1530 1532 1533 1534 1534 1535 1535 1535 1534 1535 1534 1535 1535 1535 1535 1534 1534 1534 1533 1534 1535 1535 1535 1536 1536 1536 1536
1472 1470 1469 1468 1468 1469 1471 1472 1472 1471 1471 1471 1471 1471 1471 1471 1471 1471 1472 1472 1472 1473 1474 1475 1475 1477 1478 1479 1480 1480 1480 1481 1484 1488 1491 1492 1493 1494 1496 1497 1499 1500 1503 1505 1508 1510 1512 1512 1513 1515 1516 1517 1517 1517 1518 1520 1522 1523 1525 1526 1527 1528 1529 1529 1529 1530 1530 1531 1531 1531 1531 1531 1530 1530 1530 1529 1529 1529 1530 1530 1531 1531 1532 1532 1532
1469 1468 1467 1466 1467 1468 1469 1470 1469 1468 1468 1468 1468 1467 1467 1467 1467 1466 1467 1468 1468 1469 1470 1471 1472 1474 1474 1475 1475 1476 1476 1479 1483 1485 1487 1488 1490 1491 1492 1493 1495 1497 1499 1502 1504 1506 1506 1506 1507 1509 1510 1511 1511 1512 1512 1515 1517 1518 1519 1520 1521 1522 1522 1523 1524 1524 1525 1526 1526 1526 1526 1526 1526 1526 1526 1525 1525 1525 1526 1526 1527 1527 1527 1527 1527
1468 1466 1465 1465 1465 1466 1467 1467 1466 1466 1466 1466 1465 1464 1463 1462 1462 1462 1462 1463 1464 1465 1466 1467 1468 1470 1470 1470 1471 1472 1473 1475 1479 1481 1482 1484 1486 1487 1488 1489 1491 1493 1495 1497 1499 1499 1499 1500 1501 1503 1505 1505 1506 1506 1508 1510 1512 1513 1513 1514 1515 1515 1516 1517 1518 1519 1520 1520 1521 1521 1521 1521 1521 1521 1522 1521 1521 1522 1522 1522 1522 1522 1522 1522 1523
1467 1466 1464 1463 1463 1463 1464 1464 1464 1464 1463 1462 1461 1460 1459 1458 1458 1458 1458 1458 1459 1460 1461 1462 1463 1465 1466 1466 1467 1467 1468 1471 1474 1476 1477 1479 1481 1483 1484 1486 1487 1489 1490 1492 1492 1492 1492 1493 1495 1497 1499 1500 1500 1501 1503 1505 1506 1507 1508 1509 1509 1510 1511 1512 1513 1513 1514 1515 1515 1515 1515 1516 1516 1516 1517 1517 1518 1517 1517 1517 1517 1517 1517 1518 1518
1467 1465 1464 1462 1461 1460 1460 1459 1459 1457 1456 1454 1454 1453 1453 1453 1453 1453 1454 1454 1455 1456 1456 1457 1458 1459 1460 1461 1461 1462 1463 1465 1468 1470 1472 1474 1476 1478 1480 1482 1483 1484 1485 1486 1486 1485 1486 1487 1489 1492 1493 1494 1495 1496 1498 1499 1501 1502 1503 1503 1504 1505 1506 1507 1508 1508 1509 1509 1510 1510 1510 1511 1511 1512 1512 1512 1513 1513 1512 1513 1513 1512 1512 1513 1513
1465 1464 1463 1460 1458 1456 1454 1453 1451 1450 1449 1449 1448 1448 1449 1449 1449 1450 1450 1450 1450 1451 1451 1451 1452 1453 1454 1455 1456 1456 1458 1460 1462 1464 1466 1468 1471 1473 1475 1477 1478 1479 1479 1479 1479 1479 1480 1482 1484 1486 1488 1488 1489 1491 1492 1493 1495 1497 1498 1498 1499 1500 1501 1502 1502 1503 1503 1503 1504 1505 1505 1506 1507 1507 1507 1508 1508 1508 1507 1508 1508 1508 1507 1506 1507
1462 1462 1460 1458 1455 1453 1451 1449 1447 1446 1445 1445 1445 1445 1445 1446 1446 1446 1447 1446 1446 1446 1446 1447 1447 1448 1449 1451 1452 1453 1454 1455 1458 1459 1461 1463 1465 1467 1469 1470 1471 1472 1472 1473 1473 1474 1475 1476 1478 1481 1483 1483 1483 1485 1486 1487 1489 1492 1493 1493 1494 1495 1496 1497 1497 1497 1498 1498 1499 1500 1500 1501 1502 1502 1503 1503 1503 1503 1502 1503 1503 1503 1502 1502 1505
1460 1459 1458 1455 1453 1450 1449 1447 1445 1443 1442 1442 1442 1442 1442 1442 1443 1443 1443 1442 1442 1441 1441 1442 1443 1444 1445 1446 1447 1448 1449 1451 1453 1455 1457 1458 1459 1461 1462 1463 1463 1464 1464 1465 1467 1468 1469 1471 1473 1476 1478 1478 1479 1480 1480 1481 1484 1486 1487 1488 1489 1490 1491 1491 1492 1492 1493 1494 1495 1495 1495 1495 1496 1496 1497 1497 1497 1498 1498 1498 1499 1499 1499 1501 1503
1458 1457 1455 1453 1450 1448 1446 1444 1442 1441 1439 1439 1438 1438 1438 1438 1438 1438 1438 1438 1437 1437 1436 1437 1438 1439 1440 1441 1442 1443 1444 1446 1448 1450 1451 1452 1453 1455 1456 1456 1457 1458 1458 1459 1460 1461 1463 1465 1468 1470 1472 1473 1474 1474 1475 1476 1478 1480 1482 1483 1484 1484 1485 1486 1487 1487 1488 1489 1489 1489 1489 1489 1490 1491 1491 1491 1492 1492 1493 1493 1494 1495 1496 1497 1497
1454 1453 1451 1449 1447 1445 1443 1442 1440 1438 1437 1435 1435 1434 1433 1433 1433 1433 1433 1433 1432 1431 1431 1431 1432 1433 1433 1435 1437 1438 1439 1441 1442 1444 1444 1445 1446 1447 1448 1450 1451 1452 1452 1453 1455 1456 1458 1460 1463 1465 1466 1467 1468 1469 1469 1470 1472 1475 1476 1477 1478 1478 1479 1481 1481 1481 1482 1482 1483 1483 1484 1484 1484 1485 1486 1486 1486 1487 1489 1490 1490 1491 1492 1492 1493
1450 1449 1448 1446 1444 1442 1440 1439 1437 1436 1434 1432 1431 1430 1429 1428 1428 1428 1428 1427 1426 1425 1425 1425 1426 1426 1428 1430 1431 1433 1434 1435 1436 1438 1439 1440 1441 1442 1443 1444 1445 1445 1446 1448 1450 1452 1454 1456 1458 1459 1460 1461 1462 1463 1464 1465 1467 1469 1471 1472 1472 1472 1473 1474 1475 1475 1475 1476 1477 1477 1477 1478 1478 1479 1480 1480 1482 1483 1484 1485 1485 1486 1487 1489 1491
1448 1447 1446 1444 1442 1440 1438 1436 1434 1433 1431 1429 1428 1426 1425 1424 1424 1424 1423 1422 1420 1419 1419 1418 1418 1419 1422 1424 1425 1427 1428 1429 1430 1431 1433 1435 1436 1437 1438 1438 1438 1439 1440 1442 1444 1446 1448 1450 1452 1454 1455 1456 1457 1457 1458 1459 1461 1463 1465 1466 1466 1466 1467 1467 1468 1469 1469 1470 1471 1471 1471 1471 1472 1473 1474 1476 1477 1479 1479 1480 1481 1482 1484 1486 1487
1445 1445 1444 1443 1441 1439 1436 1434 1432 1430 1428 1426 1424 1422 1421 1420 1419 1418 1418 1416 1414 1413 1412 1412 1412 1413 1415 1417 1419 1421 1422 1423 1424 1426 1427 1428 1430 1431 1432 1433 1433 1434 1434 1435 1438 1440 1439 1440 1443 1446 1448 1449 1450 1451 1452 1454 1455 1457 1459 1459 1459 1459 1460 1461 1462 1463 1463 1464 1465 1465 1465 1465 1466 1467 1469 1471 1473 1474 1474 1475 1477 1480 1482 1484 1484
1443 1443 1442 1441 1440 1437 1435 1432 1430 1427 1425 1423 1421 1419 1417 1416 1414 1413 1412 1410 1409 1407 1406 1406 1406 1407 1408 1410 1412 1415 1416 1417 1418 1420 1421 1422 1423 1425 1426 1427 1428 1428 1428 1428 1432 1434 1432 1431 1434 1438 1440 1442 1443 1444 1446 1448 1449 1450 1452 1453 1452 1453 1454 1454 1455 1456 1457 1458 1459 1459 1459 1460 1461 1462 1464 1467 1469 1470 1469 1470 1473 1478 1480 1480 1480
1442 1441 1440 1439 1437 1436 1433 1430 1427 1424 1422 1420 1418 1416 1414 1412 1410 1408 1406 1404 1403 1402 1401 1400 1401 1401 1402 1404 1407 1409 1410 1411 1412 1413 1414 1415 1417 1418 1419 1420 1422 1423 1422 1422 1426 1429 1428 1427 1427 1430 1433 1436 1437 1438 1440 1442 1443 1444 1447 1447 1446 1446 1447 1448 1449 1450 1451 1452 1452 1453 1454 1455 1456 1457 1459 1461 1464 1466 1466 1466 1468 1471 1474 1475 1476
1440 1439 1438 1436 1435 1433 1431 1427 1424 1421 1419 1416 1414 1412 1410 1408 1406 1404 1402 1399 1398 1397 1397 1396 1396 1397 1398 1399 1401 1403 1404 1406 1407 1408 1408 1409 1410 1412 1413 1414 1415 1416 1416 1417 1419 1422 1423 1422 1421 1422 1425 1429 1431 1432 1434 1436 1437 1439 1441 1441 1440 1440 1441 1442 1443 1444 1445 1446 1447 1448 1449 1450 1452 1453 1454 1456 1458 1460 1462 1463 1463 1465 1467 1470 1471
1438 1436 1435 1434 1432 1430 1428 1424 1421 1418 1416 1413 1411 1409 1407 1405 1402 1400 1397 1395 1394 1393 1393 1392 1393 1393 1393 1394 1395 1397 1399 1401 1402 1403 1403 1404 1405 1406 1407 1408 1409 1410 1410 1411 1413 1415 1416 1416 1415 1415 1418 1422 1424 1425 1427 1429 1431 1433 1435 1435 1434 1434 1435 1437 1438 1440 1442 1442 1443 1444 1445 1446 1447 1448 1449 1451 1453 1455 1456 1459 1460 1461 1461 1464 1466
1435 1433 1432 1431 1430 1428 1425 1422 1419 1416 1413 1411 1409 1406 1404 1401 1399 1397 1394 1392 1391 1390 1389 1388 1388 1388 1388 1389 1390 1392 1393 1395 1397 1398 1399 1400 1400 1400 1401 1402 1403 1405 1406 1407 1409 1410 1411 1411 1410 1410 1411 1414 1416 1417 1418 1421 1424 1427 1429 1429 1429 1430 1430 1432 1434 1436 1437 1438 1438 1439 1440 1441 1442 1444 1445 1446 1448 1450 1451 1453 1455 1456 1457 1460 1463
1432 1431 1430 1428 1427 1425 1422 1420 1417 1414 1412 1410 1407 1404 1402 1399 1396 1394 1392 1390 1388 1387 1385 1385 1384 1384 1384 1384 1385 1386 1388 1390 1392 1393 1395 1396 1396 1396 1396 1397 1399 1401 1402 1403 1404 1405 1405 1405 1406 1405 1405 1406 1408 1410 1411 1414 1418 1421 1421 1422 1424 1425 1426 1428 1431 1432 1433 1434 1435 1436 1436 1437 1438 1439 1441 1442 1444 1446 1447 1449 1451 1453 1455 1458 1461
1430 1429 1428 1426 1425 1422 1420 1417 1415 1412 1410 1408 1406 1403 1400 1397 1394 1392 1390 1389 1387 1385 1383 1382 1381 1381 1381 1381 1381 1382 1384 1386 1387 1389 1390 1391 1392 1392 1392 1394 1396 1397 1397 1397 1398 1398 1399 1400 1401 1401 1401 1403 1405 1405 1406 1409 1413 1414 1413 1414 1417 1420 1422 1425 1426 1426 1427 1429 1431 1432 1433 1434 1435 1436 1438 1439 1441 1442 1444 1446 1448 1450 1453 1456 1459
1428 1427 1426 1425 1423 1420 1418 1415 1413 1411 1408 1407 1404 1402 1399 1396 1393 1391 1389 1388 1386 1384 1382 1380 1380 1380 1379 1379 1379 1379 1381 1383 1384 1385 1386 1387 1387 1387 1388 1391 1392 1392 1391 1392 1393 1394 1395 1396 1396 1397 1398 1399 1400 1400 1401 1403 1406 1407 1407 1409 1412 1414 1417 1420 1421 1421 1422 1424 1426 1427 1428 1430 1432 1434 1436 1437 1438 1440 1442 1445 1447 1449 1451 1454 1457
1426 1426 1425 1424 1422 1419 1417 1415 1412 1410 1408 1406 1404 1401 1399 1396 1393 1391 1389 1387 1385 1382 1380 1379 1379 1379 1379 1378 1378 1377 1378 1380 1381 1382 1383 1383 1383 1384 1385 1386 1387 1386 1387 1388 1390 1391 1392 1393 1393 1394 1395 1395 1395 1396 1397 1399 1401 1403 1405 1407 1408 1409 1412 1415 1417 1418 1419 1421 1422 1423 1425 1428 1431 1434 1435 1436 1438 1440 1443 1446 1448 1450 1452 1454 1456
1425 1425 1424 1423 1421 1418 1416 1414 1412 1410 1408 1406 1403 1400 1398 1395 1393 1391 1389 1387 1385 1382 1380 1379 1379 1379 1379 1379 1378 1376 1376 1377 1379 1379 1380 1381 1382 1383 1384 1385 1384 1384 1385 1387 1388 1388 1389 1390 1391 1393 1394 1395 1396 1396 1397 1398 1400 1402 1404 1404 1405 1406 1409 1412 1414 1416 1418 1419 1420 1421 1424 1427 1431 1434 1435 1436 1438 1441 1444 1447 1449 1451 1453 1454 1456